DateTimeUTC,F1_A11,F1_S11,BsB_S11,BsG_S11,BsR_S11,BbsB_S11,BbsG_S11,BbsR_S11,BaB_A11,BaG_A11,BaR_A11,Tu_S11,T_S11,Uu_S11,U_S11,P_S11,T1_A11
2021-10-04T03:00:00Z,00000200,21000000,,,,,,,0000.30,-000.05,0000.02,16.6,23.8,,00.0,0667.4,30.9
2021-10-04T03:01:00Z,00000200,21000000,,,,,,,0000.22,0000.37,0000.25,16.6,23.8,,00.0,0667.4,30.9
2021-10-04T03:02:00Z,00000200,21000000,,,,,,,-000.14,0000.02,-000.10,16.6,23.8,,00.0,0667.4,30.9
2021-10-04T03:03:00Z,00000200,61000000,,,,,,,-000.05,-000.21,-000.07,16.6,23.8,,00.0,0667.4,30.9
2021-10-04T03:04:00Z,00000200,41000000,0000.11,-000.13,0000.16,0000.87,-000.18,-000.13,0000.55,0000.62,0000.02,17.0,23.7,,00.0,0668.4,30.9
2021-10-04T03:05:00Z,00000200,01000000,-000.28,0000.04,-000.02,-000.47,0000.10,-000.23,-000.19,-000.63,0000.28,17.1,23.7,,00.0,0668.4,30.9
2021-10-04T03:06:00Z,00000200,01000000,0000.41,-000.10,0000.40,-000.15,-000.14,-000.01,0000.11,0000.36,-000.30,17.1,23.7,,00.0,0668.5,30.9
2021-10-04T03:07:00Z,00000200,01000000,-000.29,0000.14,0000.02,-001.21,-000.25,-000.14,-000.37,-000.18,-000.05,17.1,23.7,,00.0,0668.4,30.9
2021-10-04T03:08:00Z,00000200,01000000,-000.25,-000.15,0000.15,-000.22,-000.14,-000.04,0000.16,-000.24,0000.12,17.1,23.7,,00.0,0668.4,30.9
2021-10-04T03:09:00Z,00000200,01000000,-000.21,-000.13,-000.19,0000.37,0000.13,-000.19,-000.16,0000.36,-000.09,17.0,23.7,,00.0,0668.4,30.9
2021-10-04T03:10:00Z,00000200,01000000,-000.05,0000.14,-000.01,-000.35,0000.12,-000.04,0000.42,-000.14,0000.03,17.0,23.6,,00.0,0668.4,30.9
2021-10-04T03:11:00Z,00000200,01000000,-000.19,0000.27,0000.05,-000.33,0000.04,-000.02,-000.33,0000.19,0000.17,17.0,23.6,,00.0,0668.4,30.9
2021-10-04T03:12:00Z,00000200,01000000,-000.17,-000.17,0000.13,0000.09,0000.02,-000.36,0000.57,0000.19,0000.15,16.9,23.6,,00.0,0668.4,30.9
2021-10-04T03:13:00Z,00000200,01000000,-000.11,-000.06,0000.06,-000.42,0000.08,-000.37,-000.09,0000.18,-000.08,16.8,23.5,,00.0,0668.4,30.9
2021-10-04T03:14:00Z,00000200,01000000,0000.11,-000.20,0000.14,0000.28,0000.12,0000.04,0000.18,0000.39,0000.36,16.8,23.5,,00.0,0668.4,30.9
2021-10-04T03:15:00Z,00000200,01000000,-000.14,0000.00,-000.07,0000.17,0000.06,-000.42,0000.28,-000.03,0000.28,16.8,23.5,,00.0,0668.4,30.9
2021-10-04T03:16:00Z,00000200,01000000,0000.71,0000.21,0000.14,0000.28,0000.17,-000.10,0000.13,0000.12,-000.19,16.8,23.5,,00.0,0668.4,30.9
2021-10-04T03:17:00Z,00000200,01000000,-000.30,-000.11,0000.27,-000.41,0000.30,0000.01,-000.20,-000.12,-000.01,16.9,23.5,,00.0,0668.4,30.9
2021-10-04T03:18:00Z,00000200,01000000,0000.13,-000.15,-000.07,-000.38,-000.16,-000.11,0000.12,0000.11,-000.07,16.9,23.5,,00.0,0668.4,30.9
2021-10-04T03:19:00Z,00000200,01000000,-000.37,0000.17,0000.25,-000.16,0000.05,0000.19,0000.34,0000.04,0000.59,17.0,23.6,,00.0,0668.4,30.9
2021-10-04T03:20:00Z,00000200,01000000,0000.60,-000.16,0000.30,0000.51,0000.15,-000.01,-000.20,0000.25,-000.31,17.1,23.6,,00.0,0668.4,30.9
2021-10-04T03:21:00Z,00000200,01000000,0000.18,0000.08,0000.44,0000.36,0000.02,0000.13,0000.41,-000.12,0000.11,17.1,23.6,,00.0,0668.4,30.9
2021-10-04T03:22:00Z,00000200,01000000,-000.17,0000.16,-000.17,0000.18,0000.26,-000.19,-000.06,-000.33,-000.16,17.2,23.7,,00.0,0668.4,30.9
2021-10-04T03:23:00Z,00000200,01000000,-000.29,0000.18,-000.07,-000.70,0000.03,-000.19,-000.21,0000.17,-000.03,17.1,23.7,,00.0,0668.4,30.9
2021-10-04T03:24:00Z,00000200,01000000,0000.74,-000.20,-000.21,0000.24,0000.21,-000.13,0000.08,0000.18,-000.12,17.1,23.6,,00.0,0668.4,30.9
2021-10-04T03:25:00Z,00000200,01000000,-000.19,0000.05,0000.12,-000.23,-000.20,-000.07,-000.04,-000.04,0000.23,17.1,23.6,,00.0,0668.4,30.9
2021-10-04T03:26:00Z,00000200,01000000,-000.61,0000.20,0000.03,0000.26,0000.17,-000.26,0000.40,0000.00,0000.17,17.0,23.6,,00.0,0668.4,30.9
2021-10-04T03:27:00Z,00000200,01000000,0000.45,0000.10,0000.02,-000.72,-000.03,-000.00,-000.41,0000.07,-000.11,17.0,23.6,,00.0,0668.4,30.9
2021-10-04T03:28:00Z,00000200,01000000,0000.55,0000.18,0000.15,-000.31,-000.08,0000.24,0000.42,0000.03,-000.06,17.0,23.5,,00.0,0668.4,30.9
2021-10-04T03:29:00Z,00000200,01000000,-000.70,-000.33,-000.09,0000.05,-000.04,-000.21,-000.15,0000.20,0000.16,16.9,23.5,,00.0,0668.4,30.9
2021-10-04T03:30:00Z,00000200,01000000,0000.03,0000.11,0000.14,-000.74,0000.17,-000.16,0000.12,0000.36,0000.13,16.9,23.5,,00.0,0668.4,30.9
2021-10-04T03:31:00Z,00000200,01000000,-000.54,0000.13,-000.06,0000.05,0000.04,-000.16,0000.10,-000.09,0000.19,16.9,23.5,,00.0,0668.4,30.9
2021-10-04T03:32:00Z,00000200,01000000,-000.34,-000.26,0000.03,-000.10,0000.26,0000.00,0000.32,0000.52,0000.08,16.9,23.5,,00.0,0668.4,30.9
2021-10-04T03:33:00Z,00000200,01000000,0000.47,0000.17,-000.01,-000.59,0000.35,-000.27,-000.13,-000.58,-000.13,17.0,23.5,,00.0,0668.4,30.9
2021-10-04T03:34:00Z,00000200,01000000,-000.11,0000.03,0000.15,0000.15,-000.08,0000.11,0000.09,0000.26,0000.15,17.0,23.6,,00.0,0668.4,30.9
2021-10-04T03:35:00Z,00000200,01000000,0000.71,0000.02,0000.10,0000.48,0000.27,-000.27,0000.04,0000.19,0000.08,17.1,23.6,,00.0,0668.4,30.9
2021-10-04T03:36:00Z,00000200,01000000,-000.35,-000.21,0000.14,0000.42,0000.11,-000.32,0000.14,-000.36,-000.11,17.2,23.6,,00.0,0668.4,31.0
2021-10-04T03:37:00Z,00000200,01000000,0006.06,0003.94,0002.77,0000.84,0000.94,0000.58,0068.38,0063.07,0050.07,17.2,23.7,,00.0,0668.4,31.0
2021-10-04T03:38:00Z,00000200,01000000,0002.77,0002.61,0001.95,0000.83,0000.71,0000.56,0056.17,0052.38,0041.55,17.2,23.7,,00.0,0668.4,31.0
2021-10-04T03:39:00Z,00000200,01000000,0015.53,0011.99,0007.66,0003.48,0002.88,0002.20,0194.00,0177.23,0140.59,17.2,23.7,,00.0,0668.4,30.9
2021-10-04T03:40:00Z,00000200,01000000,0006.70,0004.83,0003.04,0000.98,0001.25,0000.78,0119.32,0112.23,0091.15,17.1,23.6,,00.0,0668.4,30.9
2021-10-04T03:41:00Z,00000200,01000000,0000.11,0000.27,0000.24,0000.31,0000.10,0000.14,0002.68,0002.41,0001.50,17.1,23.6,,00.0,0668.4,30.9
2021-10-04T03:42:00Z,00000200,01000000,0001.02,0000.08,-000.04,0000.71,-000.07,-000.32,0000.97,0000.73,0000.86,17.0,23.6,,00.0,0668.4,30.9
2021-10-04T03:43:00Z,00000200,01000000,-000.09,-000.42,0000.16,-000.40,-000.15,-000.30,0000.58,0000.47,0000.44,17.0,23.6,,00.0,0668.4,30.9
2021-10-04T03:44:00Z,00000200,01000000,0000.16,0000.16,0000.16,-000.48,-000.13,0000.07,0000.93,0000.75,0000.25,16.9,23.5,,00.0,0668.4,30.9
2021-10-04T03:45:00Z,00000200,01000000,-000.19,-000.18,0000.17,-000.23,0000.00,0000.05,0000.32,0000.43,0000.40,16.9,23.5,,00.0,0668.4,30.9
2021-10-04T03:46:00Z,00000200,01000000,0002.36,0001.59,0001.29,0000.72,0000.48,0000.28,0029.67,0026.57,0020.84,16.9,23.5,,00.0,0668.4,30.9
2021-10-04T03:47:00Z,00000200,01000000,0017.76,0012.73,0008.26,0004.09,0003.44,0001.97,0231.48,0213.16,0169.15,17.0,23.5,,00.0,0668.4,30.9
2021-10-04T03:48:00Z,00000200,01000000,0013.78,0011.30,0006.96,0003.24,0002.47,0001.92,0219.22,0202.81,0162.46,17.0,23.6,,00.0,0668.4,30.9
2021-10-04T03:49:00Z,00000200,01000000,0019.60,0014.07,0009.01,0003.99,0003.61,0002.42,0252.45,0233.24,0185.96,17.1,23.6,,00.0,0668.5,30.9
2021-10-04T03:50:00Z,00000200,01000000,0015.31,0011.13,0007.72,0003.02,0002.69,0001.98,0218.32,0202.35,0162.18,17.1,23.6,,00.0,0668.5,30.9
2021-10-04T03:51:00Z,00000200,01000000,0000.31,0000.79,0000.50,-000.14,0000.52,0000.29,0025.28,0024.01,0019.50,17.2,23.6,,00.0,0668.5,30.9
2021-10-04T03:52:00Z,00000200,01000000,0000.12,0000.16,-000.04,0000.17,0000.11,-000.06,0002.33,0002.07,0001.76,17.2,23.7,,00.0,0668.5,30.9
2021-10-04T03:53:00Z,00000200,01000000,0000.42,-000.04,0000.08,0000.75,-000.10,-000.06,0001.61,0001.19,0001.09,17.2,23.7,,00.0,0668.5,30.9
2021-10-04T03:54:00Z,00000200,01000000,0000.24,-000.05,-000.01,0000.13,0000.15,-000.27,0001.05,0001.18,0000.88,17.1,23.6,,00.0,0668.5,30.9
2021-10-04T03:55:00Z,00000200,01000000,-000.46,0000.02,0000.19,-000.34,-000.04,-000.22,0001.02,0000.94,0000.50,17.1,23.6,,00.0,0668.4,30.9
2021-10-04T03:56:00Z,00000200,01000000,0000.13,0000.36,-000.03,-000.13,0000.18,-000.06,0000.87,0000.70,0001.01,17.0,23.6,,00.0,0668.4,30.9
2021-10-04T03:57:00Z,00000200,41000000,,,,,,,0003.38,0003.12,0002.31,17.0,23.6,,00.0,0668.5,30.9
2021-10-04T03:58:00Z,00000200,61000000,,,,,,,0000.56,0000.74,0000.14,16.6,23.7,,00.0,0667.5,30.9
2021-10-04T03:59:00Z,00000200,21000000,,,,,,,0000.48,0000.34,0000.48,16.6,23.8,,00.0,0667.5,30.9
